Back to catalog

FLOCK 4G 13

AliveScienceSSO
NORAD 62621·PAYLOAD·🇺🇸 United States

Launched Jan 14, 2025 from Vandenberg Space Force Base

Loading…

Next Passes (next 24 hours)

TLE

FreshSource: Space-Track

Epoch: Sep 14, 2026, 04:32 UTC

1 62621U 25009N   26257.18894951  .00126612  00000-0  14746-2 0  9992
2 62621  97.3874 343.0045 0003071 277.5686  82.5223 15.61259547 92804

Track FLOCK 4G 13 in real time with AllMySat

Download on the App Store